Welcome to the New NWS' Forecast!
Most changes are behind the scenes, but click here for differences you might notice.

Regional Weather Roundup (RWR)

Issued by National Weather Service (NWS)

                            
000
ASUS46 KSEW 161310
RWRWA 

WASHINGTON REGIONAL WEATHER ROUNDUP
NATIONAL WEATHER SERVICE SEATTLE WA
500 AM PST FRI NOV 16 2018

NOTE:"FAIR" INDICATES FEW OR NO CLOUDS BELOW 12,000 FEET WITH NO 
SIGNIFICANT WEATHER AND/OR OBSTRUCTIONS TO VISIBILITY.

WAZ507-509-555>559-161400-
SEATTLE, TACOMA, EVERETT, AND VICINITY
  
CITY           SKY/WX    TMP DP  RH WIND       PRES   REMARKS
EVERETT        LGT RAIN  50  50 100 CALM      30.21R VSB 1/4          
BOEING FIELD   CLOUDY    53  50  89 CALM      30.21R                  
RENTON         CLOUDY    53  50  89 CALM      30.21R                  
SEATAC AIRPORT LGT RAIN  52  50  93 CALM      30.21R FOG              
JBLM-MCCHORD   FOG       51  51 100 S3        30.21S VSB 3/8          
PUYALLUP       CLOUDY    52  52 100 CALM      30.21S FOG              
BREMERTON      CLOUDY    50  49  96 CALM      30.21R                  
JBLM-FT LEWIS  CLOUDY    52  52 100 CALM      30.20S FOG              
TACOMA NARROWS FOG       50  50 100 S6        30.21S VSB 1/2          
$$
 
WAZ001-503-506-510-514-515-161400-
NORTH INTERIOR
  
CITY           SKY/WX    TMP DP  RH WIND       PRES   REMARKS
BELLINGHAM     CLOUDY    50  48  93 CALM      30.21R FOG              
FRIDAY HARBOR  LGT RAIN  50  48  93 NW3       30.24R                  
EASTSOUND      CLOUDY    50  50 100 NW7       30.22R                  
PORT ANGELES   LGT RAIN  50  49  96 E6        30.23R FOG              
EDIZ HOOK      CLOUDY    49  49  99 S6        30.23S FOG              
PORT TOWNSEND  CLOUDY    50  50 100 W5        30.21S FOG              
NAS WHIDBEY    CLOUDY    53  49  86 N7        30.26R FOG              
ARLINGTON      CLOUDY    49  49 100 CALM      30.21S                  
BURLINGTON     CLOUDY    50  50 100 CALM      30.22R FOG              
$$
 
WAZ020-022-039-040-504-511-512-161400-
SOUTHWEST INTERIOR
  
CITY           SKY/WX    TMP DP  RH WIND       PRES   REMARKS
SHELTON        CLOUDY    50  48  93 NW3       30.19R                  
OLYMPIA        CLOUDY    51  48  89 SE5       30.20R                  
CHEHALIS       CLOUDY    50  50 100 VRB5      30.22R FOG              
KELSO          CLOUDY    48  46  93 SE6       30.24S                  
VANCOUVER      CLOUDY    46  44  93 CALM      30.24S                  
SCAPPOOSE, OR  CLOUDY    46  43  89 CALM      30.24R FOG              
PORTLAND, OR   DRIZZLE   46  44  93 CALM      30.25S FOG              
$$
 
WAZ021-516-517-161400-
WASHINGTON COAST
  
CITY           SKY/WX    TMP DP  RH WIND       PRES   REMARKS
FORKS          FOG       48  48 100 CALM      30.20S VSB 1/4          
HOQUIAM        FOG       54  54 100 SW6       30.20S VSB 1/2          
ASTORIA, OR    FOG       49  49 100 CALM      30.22S VSB 1            
$$
 
WAZ019-023-024-040-567>569-161400-
CASCADE MOUNTAINS AND COLUMBIA GORGE
  
CITY           SKY/WX    TMP DP  RH WIND       PRES   REMARKS
STAMPEDE PASS  NOT AVBL                                               
TROUTDALE, OR  CLOUDY    42  40  92 CALM      30.25R                  
HOOD RIVER, OR MOSUNNY   39  37  93 CALM      30.17S                  
THE DALLES, OR PTCLDY    41  37  86 CALM      30.15F                  
$$

WAZ026-027-041>044-520-521-161400-
EAST SLOPES
  
CITY           SKY/WX    TMP DP  RH WIND       PRES   REMARKS
OMAK           MOCLDY    36  35  96 N12       30.20R                  
WENATCHEE      CLOUDY    37  34  89 NE8       30.19R                  
ELLENSBURG     MOCLDY    45  40  82 S3        30.11S                  
YAKIMA         CLOUDY    35  31  85 NW5       30.15R FOG              
SUNNYSIDE ARPT CLOUDY    35  33  94 CALM      30.15R FOG              
YAKIMA TC      PTSUNNY   35  32  89 S6        30.12R                  
$$

WAZ028-034-035-161400-
COLUMBIA BASIN
  
CITY           SKY/WX    TMP DP  RH WIND       PRES   REMARKS
EPHRATA        MOCLDY    39  34  82 NW16      30.15R                  
MOSES LAKE     MOCLDY    37  33  85 N5        30.17R                  
PASCO          MOCLDY    38  36  92 NW8       30.17R FOG              
RICHLAND ARPT  PTSUNNY   37  35  93 NW8       30.18R FOG              
HERMISTON, OR  MOCLDY    33  32  96 CALM      30.15R                  
$$

WAZ036>038-161400-
NORTHEAST WASHINGTON
  
CITY           SKY/WX    TMP DP  RH WIND       PRES   REMARKS
SPOKANE GEIGER CLOUDY    37  35  92 CALM      30.12R FOG              
SPOKANE FELTS  CLOUDY    37  35  92 CALM      30.12F FOG              
FAIRCHILD AFB  CLOUDY    36  36 100 N3        30.11R FOG              
COEURDALENE,ID CLOUDY    38  37  97 SW6       30.12R                  
DEER PARK      CLOUDY    34  34 100 CALM      30.13R FOG              
$$

WAZ029>033-161400-
SOUTHEAST WASHINGTON
  
CITY           SKY/WX    TMP DP  RH WIND       PRES   REMARKS
PULLMAN        CLOUDY    42  39  89 N8        30.13R                  
LEWISTON, ID   CLOUDY    43  37  79 CALM      30.12R                  
WALLA WALLA    CLOUDY    52  38  58 SW8       30.14R                  
PENDLETON, OR  MOCLDY    44  35  70 S5        30.13R                  
$$